Flag for Germany Weather past 2 weeks in Dietzenbach, Hesse, Germany

Now
68 °F

Passing clouds.


Feels Like: 68 °F
Forecast: 56 / 80 °F
Wind: 2 mph from East

Location: Frankfurt / M-Flughafen

Current Time: Jul 31, 2014 at 9:42:19 AM

Latest Report: Jul 31, 2014 at 9:00 AM


Visibility: 13 mi

Pressure: 30.01 "Hg

Humidity: 71%

Dew point: 58 °F

Location of DietzenbachLocation

Historic Weather in Dietzenbach — Graph

°F

Dietzenbach temperature yesterday

Maximum temperature yesterday: 72 °F (at 2:00 PM)
Minimum temperature yesterday: 67 °F (at 12:00 AM)
Average temperature yesterday: 70 °F

Past Weeks' High & Low Weather Summary

 TemperatureHumidityPressure
High93 °F (Jul 19, 5:00 PM)94% (Jul 29, 4:00 AM)30.19 "Hg (Jul 29, 4:00 AM)
Low59 °F (Jul 26, 5:00 AM)22% (Jul 18, 6:00 PM)29.74 "Hg (Jul 29, 3:00 PM)
Average73 °F66%29.93 "Hg
* Reported Jul 16 8:00 AM — Jul 31 8:00 AM, Dietzenbach, Weather by CustomWeather, © 2014

Note: Actual official high and low records may vary slightly from our data, if they occured in-between our weather recording intervals... More about our weather records

Advertising

Dietzenbach weather history for previous 24 hours

 ConditionsComfort  
Time TempWeatherWind HumidityBarometerVisibility
8:00 AM
Jul 31
65 °FPassing clouds.1 mph77%30.01 "Hg16 mi
7:00 AM63 °FPassing clouds.1 mph81%30.00 "Hg19 mi
6:00 AM63 °FPassing clouds.3 mph81%29.98 "Hg25 mi
5:00 AM65 °FOvercast.2 mph76%29.97 "Hg28 mi
4:00 AM65 °FOvercast.2 mph77%29.97 "Hg28 mi
3:00 AM64 °FOvercast.1 mph83%29.98 "Hg28 mi
2:00 AM65 °FPassing clouds.1 mph80%29.96 "Hg31 mi
1:00 AM68 °FOvercast.2 mph72%29.95 "Hg31 mi
12:00 AM68 °FOvercast.2 mph71%29.95 "Hg31 mi
10:00 PM
Jul 30
70 °FOvercast.3 mph62%29.93 "Hg31 mi
9:00 PM72 °FOvercast.3 mph62%29.91 "Hg31 mi
8:00 PM72 °FOvercast.2 mph65%29.89 "Hg31 mi
7:00 PM71 °FOvercast.3 mph66%29.88 "Hg19 mi
6:00 PM72 °FOvercast.5 mph67%29.87 "Hg19 mi
5:00 PM72 °FOvercast.5 mph68%29.87 "Hg14 mi
4:00 PM72 °FOvercast.5 mph69%29.86 "Hg14 mi
3:00 PM72 °FOvercast.6 mph70%29.85 "Hg14 mi
2:00 PM72 °FPartly sunny.7 mph73%29.83 "Hg16 mi
1:00 PM72 °FOvercast.6 mph78%29.83 "Hg16 mi
12:00 PM72 °FOvercast.3 mph80%29.81 "Hg16 mi
11:00 AM71 °FOvercast.3 mph85%29.80 "Hg11 mi
10:00 AM70 °FLight rain. Overcast.1 mph82%29.80 "Hg11 mi
9:00 AM68 °FLight rain. Overcast.1 mph87%29.80 "Hg11 mi
Weather by CustomWeather, © 2014

See weather overviewHow to use our weather pages